Date String (YYYY-MM-DD hh:mm:ss) UTC,Instrument flags,Ambient pressure (hPa),Sample flow (lpm),Bypass flow (lpm),Sample temperature (°C),Ambient temperature (°C),ASC tube jacket temperature (°C),LED temperature (°C),Box temperature (°C),Sample RH (%),Span deviation,Mass concentration (μg/m³),Mass concentration (μg/m³),Mass concentration (μg/m³)
DateTimeUTC,F1_M11,P_M11,Q1_M11,Q2_M11,T1_M11,T2_M11,T3_M11,T4_M11,T5_M11,U1_M11,ZSPAN_M11,X2_M11,X0_M11,X1_M11
2022-10-21 16:00:00,,0821.0,4.99,0.00,28.8,27.3,00.0,37.7,30.6,08.0,-000.5,0005.32,0009.95,0004.80
2022-10-21 16:01:00,,0821.2,5.00,0.00,28.8,27.3,00.0,37.7,30.6,07.9,-000.3,0005.28,0009.95,0004.79
2022-10-21 16:02:00,,0821.1,5.00,0.00,28.8,27.2,00.0,37.7,30.6,07.9,0000.0,0005.22,0009.49,0004.74
2022-10-21 16:03:00,,0821.2,5.00,0.00,28.8,27.3,00.0,37.7,30.6,08.0,0000.0,0005.17,0009.25,0004.71
2022-10-21 16:04:00,,0821.2,5.00,0.00,28.8,27.3,00.0,37.7,30.6,08.1,0000.0,0005.15,0009.27,0004.70
2022-10-21 16:05:00,,0821.1,5.00,0.00,28.8,27.3,00.0,37.7,30.7,08.1,0000.0,0005.12,0009.84,0004.69
2022-10-21 16:06:00,,0821.1,5.00,0.00,28.8,27.3,00.0,37.7,30.7,07.9,0000.0,0005.12,0010.04,0004.68
2022-10-21 16:07:00,,0821.1,4.98,0.00,28.8,27.3,00.0,37.7,30.7,08.0,0000.0,0005.09,0009.95,0004.66
2022-10-21 16:08:00,,0821.1,5.00,0.00,28.8,27.3,00.0,37.7,30.7,07.9,0000.0,0005.06,0009.81,0004.64
2022-10-21 16:09:00,,0821.1,5.00,0.00,28.8,27.3,00.0,37.7,30.7,08.0,0000.0,0005.04,0009.69,0004.64
2022-10-21 16:10:00,,0821.0,5.02,0.00,28.9,27.4,00.0,37.7,30.7,08.1,0000.0,0005.04,0009.76,0004.63
2022-10-21 16:11:00,,0821.0,4.98,0.00,28.9,27.4,00.0,37.8,30.7,08.0,0000.0,0005.04,0009.85,0004.61
2022-10-21 16:12:00,,0821.1,5.00,0.00,28.8,27.4,00.0,37.8,30.7,08.0,0000.0,0005.06,0010.59,0004.60
2022-10-21 16:13:00,,0821.0,5.01,0.00,28.9,27.4,00.0,37.8,30.7,07.9,0000.0,0005.06,0010.73,0004.60
2022-10-21 16:14:00,,0821.0,5.00,0.00,28.9,27.5,00.0,37.8,30.8,07.9,0000.0,0005.09,0010.74,0004.63
2022-10-21 16:15:00,,0821.0,4.99,0.00,28.9,27.5,00.0,37.8,30.8,07.9,0000.0,0005.13,0010.93,0004.64
2022-10-21 16:16:00,,0821.0,4.99,0.00,28.9,27.5,00.0,37.8,30.8,08.0,0000.0,0005.17,0009.96,0004.67
2022-10-21 16:17:00,,0821.0,5.00,0.00,28.9,27.5,00.0,37.8,30.8,08.0,0000.0,0005.17,0010.32,0004.69
2022-10-21 16:18:00,,0821.0,5.01,0.00,28.9,27.6,00.0,37.8,30.8,08.1,0000.0,0005.19,0010.89,0004.72
2022-10-21 16:19:00,,0820.9,5.00,0.00,28.9,27.6,00.0,37.8,30.8,08.0,0000.0,0005.21,0011.18,0004.75
2022-10-21 16:20:00,,0821.0,5.00,0.00,28.9,27.6,00.0,37.8,30.8,08.2,0000.0,0005.23,0011.20,0004.77
2022-10-21 16:21:00,,0821.0,5.00,0.00,29.0,27.6,00.0,37.8,30.9,08.1,0000.0,0005.25,0011.22,0004.77
2022-10-21 16:22:00,,0820.9,5.00,0.00,29.0,27.7,00.0,37.8,30.9,08.1,0001.5,0005.24,0011.05,0004.79
2022-10-21 16:23:00,,0820.9,4.99,0.00,29.0,27.7,00.0,37.8,30.9,08.6,0000.8,0005.22,0010.34,0004.79
2022-10-21 16:24:00,,0820.9,4.99,0.00,29.0,27.7,00.0,37.8,30.9,08.4,0000.0,0005.24,0010.45,0004.77
2022-10-21 16:25:00,,0820.8,4.99,0.00,29.0,27.8,00.0,37.9,30.9,08.3,0000.0,0005.24,0010.25,0004.76
2022-10-21 16:26:00,,0820.9,5.03,0.00,29.0,27.8,00.0,37.9,31.0,08.9,0000.0,0005.24,0010.21,0004.71
2022-10-21 16:27:00,,0820.9,4.99,0.00,29.1,27.8,00.0,37.9,31.0,08.9,0000.0,0005.25,0010.75,0004.65
2022-10-21 16:28:00,,0820.9,5.00,0.00,29.1,27.9,00.0,37.9,31.0,08.6,0000.0,0005.25,0010.39,0004.61
2022-10-21 16:29:00,,0820.9,5.00,0.00,29.1,27.9,00.0,37.9,31.0,08.7,0000.0,0005.24,0009.94,0004.55
2022-10-21 16:30:00,,0820.8,5.02,0.00,29.1,27.9,00.0,37.9,31.0,08.5,0000.0,0005.22,0010.18,0004.49
2022-10-21 16:31:00,,0820.9,5.00,0.00,29.1,27.9,00.0,37.9,31.0,08.8,0000.0,0005.23,0010.86,0004.44
2022-10-21 16:32:00,,0820.8,5.00,0.00,29.1,27.9,00.0,37.9,31.0,09.0,0000.0,0005.20,0011.24,0004.42
2022-10-21 16:33:00,,0820.9,5.00,0.00,29.2,27.9,00.0,38.0,31.1,08.9,0000.0,0005.20,0011.95,0004.39
2022-10-21 16:34:00,,0820.9,5.00,0.00,29.2,28.0,00.0,38.0,31.1,08.6,0000.0,0005.21,0012.02,0004.40
2022-10-21 16:35:00,,0820.9,5.00,0.00,29.2,28.0,00.0,38.0,31.1,08.5,0000.0,0005.20,0011.80,0004.42
2022-10-21 16:36:00,,0820.9,5.00,0.00,29.2,28.0,00.0,38.0,31.1,08.6,0000.0,0005.18,0011.75,0004.42
2022-10-21 16:37:00,,0820.8,5.01,0.00,29.2,28.0,00.0,38.0,31.1,08.6,0000.0,0005.17,0011.68,0004.43
2022-10-21 16:38:00,,0820.7,5.00,0.00,29.2,28.0,00.0,38.0,31.1,08.4,0000.0,0005.19,0011.31,0004.48
2022-10-21 16:39:00,,0820.6,4.99,0.00,29.3,28.1,00.0,38.0,31.2,07.9,0000.0,0005.22,0011.33,0004.52
2022-10-21 16:40:00,,0820.7,4.99,0.00,29.3,28.1,00.0,38.1,31.2,07.7,0000.0,0005.29,0011.45,0004.62
2022-10-21 16:41:00,,0820.9,5.01,0.00,29.3,28.1,00.0,38.1,31.2,07.9,0000.0,0005.37,0011.15,0004.73
2022-10-21 16:42:00,,0821.0,5.00,0.00,29.3,28.1,00.0,38.1,31.2,07.8,0000.0,0005.47,0011.43,0004.83
2022-10-21 16:43:00,,0820.8,4.99,0.00,29.3,28.2,00.0,38.1,31.2,07.9,0000.0,0005.56,0011.94,0004.93
2022-10-21 16:44:00,,0820.8,5.00,0.00,29.4,28.2,00.0,38.1,31.2,07.7,0000.0,0005.63,0011.47,0005.02
2022-10-21 16:45:00,,0820.7,5.02,0.00,29.4,28.2,00.0,38.2,31.2,07.3,0000.0,0005.78,0011.62,0005.16
2022-10-21 16:46:00,,0820.6,5.00,0.00,29.4,28.2,00.0,38.2,31.2,07.1,0000.0,0006.00,0011.87,0005.38
2022-10-21 16:47:00,,0820.6,4.99,0.00,29.4,28.2,00.0,38.2,31.2,06.9,0000.0,0006.19,0012.59,0005.58
2022-10-21 16:48:00,,0820.5,5.02,0.00,29.4,28.2,00.0,38.2,31.2,06.9,0000.0,0006.38,0012.99,0005.78
2022-10-21 16:49:00,,0820.6,4.99,0.00,29.4,28.1,00.0,38.2,31.2,07.0,0000.0,0006.52,0013.00,0005.95
2022-10-21 16:50:00,,0820.6,5.01,0.00,29.4,28.1,00.0,38.3,31.2,07.0,0000.0,0006.69,0013.41,0006.11
2022-10-21 16:51:00,,0820.6,4.99,0.00,29.4,28.1,00.0,38.3,31.2,06.9,0000.0,0006.86,0013.88,0006.21
2022-10-21 16:52:00,,0820.4,4.99,0.00,29.4,28.1,00.0,38.3,31.3,06.8,0001.3,0006.99,0014.06,0006.33
2022-10-21 16:53:00,,0820.5,5.01,0.00,29.4,28.1,00.0,38.3,31.3,06.8,0001.1,0007.12,0014.01,0006.47
2022-10-21 16:54:00,,0820.4,4.98,0.00,29.4,28.1,00.0,38.3,31.3,06.7,0001.0,0007.32,0014.51,0006.68
2022-10-21 16:55:00,,0820.5,5.01,0.00,29.5,28.1,00.0,38.3,31.3,06.8,0001.2,0007.50,0014.85,0006.84
2022-10-21 16:56:00,,0820.5,4.99,0.00,29.5,28.1,00.0,38.3,31.3,06.8,0001.2,0007.61,0014.95,0006.91
2022-10-21 16:57:00,,0820.4,5.02,0.00,29.5,28.2,00.0,38.4,31.3,06.8,0001.2,0007.58,0014.85,0006.92
2022-10-21 16:58:00,,0820.5,4.99,0.00,29.5,28.1,00.0,38.4,31.3,06.8,0001.5,0007.67,0014.63,0007.00
2022-10-21 16:59:00,,0820.4,5.01,0.00,29.5,28.2,00.0,38.4,31.3,06.8,0001.5,0007.76,0014.71,0007.11
